Location: Blue Pit
(43.1414°N, 93.2208°W)
Time: 10:02:43
(UTC+00:00)

SJ-12 - Visible Passes

Search period start: 11 February 2026 00:00
Search period end: 21 February 2026 00:00
Orbit: 515 x 525 km, 97.8° (Epoch: 10 February)

Date Brightness Start Highest point End Pass type
(mag) Time Alt. Az. Time Alt. Az. Time Alt. Az.
11 Feb 3.8 00:05:54 10° S 00:09:43 82° WSW 00:13:31 10° NNW visible
13 Feb 7.3 01:15:08 10° WSW 01:16:59 13° W 01:18:51 10° WNW visible
14 Feb 6.8 01:00:34 10° SW 01:03:18 19° W 01:06:02 10° NW visible
14 Feb 5.6 12:30:35 10° NNE 12:34:05 36° E 12:37:34 10° SSE visible
15 Feb 6.2 00:46:23 10° SSW 00:49:37 27° W 00:52:53 10° NW visible
15 Feb 6.4 12:17:17 10° NE 12:20:26 25° E 12:23:33 10° SSE visible
16 Feb 5.4 00:32:24 10° SSW 00:35:57 38° W 00:39:32 10° NNW visible
16 Feb 7.1 12:04:10 10° NE 12:06:44 17° E 12:09:17 10° SE visible
17 Feb 4.5 00:18:35 10° S 00:22:18 58° WSW 00:26:04 10° NNW visible
17 Feb 7.4 11:51:28 10° ENE 11:52:59 12° E 11:54:30 10° ESE visible
20 Feb 7.2 01:13:46 10° SW 01:15:47 14° W 01:17:48 10° WNW visible
